ACA1018 KSAT-CYYZ

Flight info

Callsign ACA1018
Flight time 2h 40m
Altitude 37000
Route SNIDR2 BLUMS DCT IAH J101 LIT J137 ARG/N0434F390 DCT ENL DCT FWA DCT WASPP DCT QWERI NUBER6
Aircraft A320/M-SDE3FGHIRWY/LB1

Departure

Time 2026-05-06 23:15
Airport San Antonio International Airport (KSAT)

Arrival

Time 2026-05-07 01:55
Airport Toronto Pearson International Airport (CYYZ)
Time Latitude Longitude Altitude Speed Heading
2026-05-06 20:45 29.52772 -98.47063 798 ft 0 kts 139°
2026-05-06 23:09 29.52777 -98.47068 798 ft 3 kts 136°
2026-05-06 23:09 29.52791 -98.47087 798 ft 3 kts 112°
2026-05-06 23:10 29.52794 -98.47109 798 ft 3 kts 66°
2026-05-06 23:10 29.52786 -98.47123 798 ft 1 kts 39°
2026-05-06 23:10 29.52783 -98.47125 798 ft 0 kts 39°
2026-05-06 23:12 29.52787 -98.47121 798 ft 4 kts 39°
2026-05-06 23:12 29.52820 -98.47090 798 ft 8 kts 40°
2026-05-06 23:12 29.52852 -98.47029 798 ft 10 kts 95°
2026-05-06 23:12 29.52807 -98.46954 798 ft 13 kts 131°
2026-05-06 23:13 29.52741 -98.46870 798 ft 15 kts 132°
2026-05-06 23:13 29.52647 -98.46837 798 ft 17 kts 215°
2026-05-06 23:13 29.52554 -98.46929 798 ft 19 kts 220°
2026-05-06 23:13 29.52452 -98.47030 798 ft 18 kts 222°
2026-05-06 23:14 29.52363 -98.47024 798 ft 15 kts 132°
2026-05-06 23:14 29.52367 -98.46944 798 ft 17 kts 39°
2026-05-06 23:14 29.52673 -98.46648 798 ft 102 kts 40°
2026-05-06 23:14 29.53385 -98.45947 881 ft 162 kts 41°
2026-05-06 23:15 29.53971 -98.44793 1579 ft 182 kts 81°
2026-05-06 23:15 29.53679 -98.43381 2342 ft 186 kts 118°
2026-05-06 23:15 29.52963 -98.42143 2980 ft 188 kts 119°
2026-05-06 23:15 29.52311 -98.40816 3519 ft 194 kts 104°
2026-05-06 23:16 29.52230 -98.39227 3838 ft 214 kts 75°
2026-05-06 23:16 29.52967 -98.37610 3850 ft 249 kts 48°
2026-05-06 23:16 29.54151 -98.36045 4383 ft 266 kts 47°
2026-05-06 23:16 29.55380 -98.34453 5254 ft 272 kts 47°
2026-05-06 23:17 29.56653 -98.32813 6085 ft 279 kts 47°
2026-05-06 23:17 29.57958 -98.31124 6890 ft 286 kts 47°
2026-05-06 23:17 29.59311 -98.29367 7636 ft 293 kts 48°
2026-05-06 23:17 29.60655 -98.27613 8362 ft 299 kts 49°
2026-05-06 23:18 29.61951 -98.25711 9077 ft 305 kts 59°
2026-05-06 23:18 29.62857 -98.23491 9765 ft 310 kts 73°
2026-05-06 23:18 29.63302 -98.21025 10148 ft 326 kts 86°
2026-05-06 23:18 29.63539 -98.18348 10340 ft 347 kts 86°
2026-05-06 23:19 29.63795 -98.15547 10820 ft 357 kts 85°
2026-05-06 23:19 29.64063 -98.12687 11401 ft 363 kts 85°
2026-05-06 23:19 29.64336 -98.09777 11974 ft 370 kts 86°
2026-05-06 23:19 29.64613 -98.06812 12548 ft 376 kts 86°
2026-05-06 23:20 29.64893 -98.03802 13126 ft 381 kts 86°
2026-05-06 23:20 29.65105 -98.00750 13702 ft 384 kts 92°
2026-05-06 23:20 29.65147 -97.97662 14285 ft 388 kts 92°
2026-05-06 23:20 29.65191 -97.94545 14856 ft 392 kts 92°
2026-05-06 23:21 29.65237 -97.91397 15418 ft 396 kts 92°
2026-05-06 23:21 29.65281 -97.88211 15959 ft 400 kts 92°
2026-05-06 23:21 29.65327 -97.84995 16486 ft 405 kts 93°
2026-05-06 23:21 29.65373 -97.81738 17016 ft 409 kts 93°
2026-05-06 23:22 29.65410 -97.78452 17549 ft 413 kts 94°
2026-05-06 23:22 29.65436 -97.75134 18088 ft 417 kts 94°
2026-05-06 23:22 29.65462 -97.71781 18610 ft 421 kts 94°
2026-05-06 23:22 29.65490 -97.68396 19122 ft 425 kts 94°
2026-05-06 23:23 29.65522 -97.64981 19634 ft 429 kts 94°
2026-05-06 23:23 29.65556 -97.61538 20139 ft 433 kts 94°
2026-05-06 23:23 29.65593 -97.58109 20637 ft 436 kts 94°
2026-05-06 23:23 29.65632 -97.54610 21110 ft 440 kts 94°
2026-05-06 23:24 29.65667 -97.51078 21570 ft 444 kts 94°
2026-05-06 23:24 29.65698 -97.47512 22024 ft 447 kts 94°
2026-05-06 23:24 29.65728 -97.43926 22458 ft 450 kts 94°
2026-05-06 23:24 29.65758 -97.40313 22888 ft 454 kts 94°
2026-05-06 23:25 29.65789 -97.36667 23321 ft 458 kts 94°
2026-05-06 23:25 29.65821 -97.32990 23744 ft 461 kts 94°
2026-05-06 23:25 29.65851 -97.29297 24148 ft 464 kts 94°
2026-05-06 23:25 29.65879 -97.25566 24544 ft 467 kts 94°
2026-05-06 23:26 29.65906 -97.21819 24931 ft 471 kts 94°
2026-05-06 23:26 29.65932 -97.18032 25303 ft 475 kts 94°
2026-05-06 23:26 29.65957 -97.14225 25686 ft 478 kts 94°
2026-05-06 23:26 29.65980 -97.10396 26054 ft 481 kts 94°
2026-05-06 23:27 29.66001 -97.06540 26400 ft 484 kts 94°
2026-05-06 23:27 29.66020 -97.02660 26765 ft 487 kts 94°
2026-05-06 23:27 29.66037 -96.98808 27096 ft 490 kts 94°
2026-05-06 23:27 29.66058 -96.94874 27427 ft 493 kts 94°
2026-05-06 23:28 29.66079 -96.90919 27765 ft 496 kts 94°
2026-05-06 23:28 29.66099 -96.86934 28100 ft 499 kts 94°
2026-05-06 23:28 29.66122 -96.82930 28424 ft 502 kts 94°
2026-05-06 23:28 29.66143 -96.78904 28738 ft 506 kts 94°
2026-05-06 23:29 29.66161 -96.74847 29060 ft 509 kts 94°
2026-05-06 23:29 29.66174 -96.70767 29385 ft 512 kts 94°
2026-05-06 23:29 29.66182 -96.66658 29717 ft 514 kts 94°
2026-05-06 23:29 29.66192 -96.62533 30044 ft 517 kts 94°
2026-05-06 23:30 29.66203 -96.58388 30348 ft 520 kts 94°
2026-05-06 23:30 29.66212 -96.54218 30651 ft 523 kts 94°
2026-05-06 23:30 29.66221 -96.50030 30949 ft 525 kts 94°
2026-05-06 23:30 29.66227 -96.45813 31284 ft 527 kts 94°
2026-05-06 23:31 29.66228 -96.41603 31695 ft 527 kts 94°
2026-05-06 23:31 29.66223 -96.37390 32101 ft 527 kts 94°
2026-05-06 23:31 29.66215 -96.33234 32498 ft 527 kts 94°
2026-05-06 23:31 29.66204 -96.29025 32900 ft 527 kts 94°
2026-05-06 23:32 29.66191 -96.24814 33299 ft 526 kts 94°
2026-05-06 23:32 29.66178 -96.20609 33699 ft 526 kts 94°
2026-05-06 23:32 29.66166 -96.16396 34070 ft 527 kts 94°
2026-05-06 23:32 29.66155 -96.12184 34451 ft 526 kts 94°
2026-05-06 23:33 29.66139 -96.07981 34819 ft 526 kts 94°
2026-05-06 23:33 29.66122 -96.03781 35174 ft 525 kts 94°
2026-05-06 23:33 29.66101 -95.99576 35523 ft 525 kts 94°
2026-05-06 23:33 29.66081 -95.95381 35863 ft 525 kts 94°
2026-05-06 23:34 29.66062 -95.91179 36184 ft 524 kts 94°
2026-05-06 23:34 29.66042 -95.86990 36496 ft 524 kts 94°
2026-05-06 23:34 29.66124 -95.82800 36784 ft 526 kts 87°
2026-05-06 23:34 29.66711 -95.78643 36872 ft 526 kts 76°
2026-05-06 23:35 29.67838 -95.74722 36878 ft 522 kts 65°
2026-05-06 23:35 29.71572 -95.67663 36878 ft 514 kts 46°
2026-05-06 23:36 29.76211 -95.61341 36879 ft 514 kts 46°
2026-05-06 23:36 29.80780 -95.55077 36880 ft 513 kts 46°
2026-05-06 23:37 29.85372 -95.48780 36871 ft 513 kts 46°
2026-05-06 23:37 29.89963 -95.42480 36876 ft 514 kts 46°
2026-05-06 23:38 29.94776 -95.36441 36886 ft 507 kts 35°
2026-05-06 23:38 30.00578 -95.32069 36886 ft 491 kts 17°
2026-05-06 23:39 30.06804 -95.28876 36879 ft 490 kts 15°
2026-05-06 23:39 30.13038 -95.25657 36883 ft 492 kts 16°
2026-05-06 23:40 30.19290 -95.22411 36889 ft 492 kts 16°
2026-05-06 23:40 30.25551 -95.19167 36898 ft 492 kts 15°
2026-05-06 23:41 30.31801 -95.15933 36902 ft 492 kts 15°
2026-05-06 23:41 30.38062 -95.12686 36909 ft 493 kts 15°
2026-05-06 23:42 30.44316 -95.09440 36912 ft 493 kts 15°
2026-05-06 23:42 30.50541 -95.06200 36906 ft 493 kts 15°
2026-05-06 23:43 30.56797 -95.02938 36918 ft 493 kts 15°
2026-05-06 23:43 30.63057 -94.99659 36921 ft 493 kts 15°
2026-05-06 23:44 30.69308 -94.96388 36912 ft 493 kts 15°
2026-05-06 23:44 30.75565 -94.93122 36928 ft 493 kts 15°
2026-05-06 23:45 30.81791 -94.89857 36909 ft 494 kts 15°
2026-05-06 23:45 30.88051 -94.86575 36924 ft 494 kts 15°
2026-05-06 23:46 30.94321 -94.83279 36920 ft 495 kts 15°
2026-05-06 23:46 31.00598 -94.79969 36925 ft 495 kts 15°
2026-05-06 23:47 31.06886 -94.76652 36931 ft 495 kts 15°
2026-05-06 23:47 31.13121 -94.73357 36934 ft 495 kts 15°
2026-05-06 23:48 31.19275 -94.69617 36942 ft 503 kts 22°
2026-05-06 23:48 31.25297 -94.65454 36942 ft 503 kts 22°
2026-05-06 23:49 31.31339 -94.61282 37247 ft 505 kts 22°
2026-05-06 23:49 31.34366 -94.59191 37515 ft 505 kts 22°
2026-05-06 23:49 31.37400 -94.57091 37772 ft 506 kts 22°
2026-05-06 23:49 31.40387 -94.55023 38020 ft 506 kts 22°
2026-05-06 23:50 31.43426 -94.52922 38256 ft 506 kts 22°
2026-05-06 23:50 31.49493 -94.48717 38725 ft 507 kts 22°
2026-05-06 23:50 31.52531 -94.46605 38902 ft 509 kts 22°
2026-05-06 23:51 31.58615 -94.42371 38952 ft 508 kts 22°
2026-05-06 23:51 31.64696 -94.38132 38961 ft 508 kts 21°
2026-05-06 23:52 31.70778 -94.33891 38962 ft 509 kts 21°
2026-05-06 23:52 31.76860 -94.29642 38967 ft 509 kts 22°
2026-05-06 23:53 31.82944 -94.25385 38980 ft 509 kts 21°
2026-05-06 23:53 31.88009 -94.21823 38980 ft 510 kts 22°
2026-05-06 23:54 31.95093 -94.16840 38988 ft 511 kts 22°
2026-05-06 23:54 32.00204 -94.13255 38990 ft 511 kts 21°
2026-05-06 23:55 32.06310 -94.08962 38994 ft 511 kts 22°
2026-05-06 23:55 32.12370 -94.04687 39004 ft 511 kts 22°
2026-05-06 23:56 32.18480 -94.00372 39010 ft 511 kts 22°
2026-05-06 23:56 32.24622 -93.96033 39003 ft 511 kts 22°
2026-05-06 23:57 32.30697 -93.91727 39006 ft 512 kts 22°
2026-05-06 23:57 32.36804 -93.87382 39000 ft 512 kts 22°
2026-05-06 23:58 32.42917 -93.83031 39000 ft 512 kts 22°
2026-05-06 23:58 32.49026 -93.78675 38999 ft 513 kts 21°
2026-05-06 23:59 32.55144 -93.74311 39001 ft 513 kts 21°
2026-05-06 23:59 32.61232 -93.69967 38997 ft 514 kts 21°
2026-05-07 00:00 32.67358 -93.65591 39000 ft 514 kts 21°
2026-05-07 00:00 32.73492 -93.61186 39015 ft 515 kts 21°
2026-05-07 00:01 32.79623 -93.56778 39018 ft 515 kts 21°
2026-05-07 00:01 32.85758 -93.52364 39016 ft 516 kts 21°
2026-05-07 00:02 32.91905 -93.47936 39024 ft 516 kts 21°
2026-05-07 00:02 32.98013 -93.43538 39013 ft 516 kts 21°
2026-05-07 00:03 33.04169 -93.39106 39034 ft 516 kts 21°
2026-05-07 00:03 33.10313 -93.34664 39033 ft 516 kts 21°
2026-05-07 00:04 33.16456 -93.30205 39030 ft 517 kts 21°
2026-05-07 00:04 33.22602 -93.25725 39030 ft 517 kts 21°
2026-05-07 00:05 33.28752 -93.21251 39029 ft 518 kts 21°
2026-05-07 00:05 33.34908 -93.16768 39028 ft 518 kts 21°
2026-05-07 00:06 33.41073 -93.12283 39034 ft 518 kts 21°
2026-05-07 00:06 33.47238 -93.07781 39038 ft 519 kts 21°
2026-05-07 00:07 33.53361 -93.03312 39044 ft 518 kts 20°
2026-05-07 00:07 33.59607 -92.99028 39049 ft 516 kts 18°
2026-05-07 00:08 33.65886 -92.94859 39057 ft 516 kts 18°
2026-05-07 00:08 33.72161 -92.90641 39046 ft 518 kts 18°
2026-05-07 00:09 33.78451 -92.86340 39021 ft 522 kts 19°
2026-05-07 00:09 33.84781 -92.81992 39027 ft 525 kts 19°
2026-05-07 00:10 33.91114 -92.77640 39034 ft 527 kts 19°
2026-05-07 00:10 33.97495 -92.73260 39043 ft 528 kts 19°
2026-05-07 00:11 34.03894 -92.68876 39048 ft 529 kts 18°
2026-05-07 00:11 34.10313 -92.64454 39046 ft 531 kts 18°
2026-05-07 00:12 34.16695 -92.60040 39056 ft 532 kts 18°
2026-05-07 00:12 34.23136 -92.55581 39070 ft 533 kts 18°
2026-05-07 00:13 34.29584 -92.51120 39084 ft 534 kts 18°
2026-05-07 00:13 34.36027 -92.46651 39089 ft 534 kts 18°
2026-05-07 00:14 34.42434 -92.42200 39092 ft 534 kts 18°
2026-05-07 00:14 34.48889 -92.37711 39094 ft 534 kts 18°
2026-05-07 00:15 34.55330 -92.33222 39090 ft 534 kts 18°
2026-05-07 00:15 34.61771 -92.28714 39091 ft 534 kts 18°
2026-05-07 00:16 34.68222 -92.24206 39093 ft 535 kts 18°
2026-05-07 00:16 34.74676 -92.19678 39093 ft 536 kts 18°
2026-05-07 00:17 34.81118 -92.15081 39091 ft 543 kts 23°
2026-05-07 00:17 34.87225 -92.09623 39087 ft 549 kts 26°
2026-05-07 00:18 34.93351 -92.04070 39083 ft 550 kts 26°
2026-05-07 00:18 34.99498 -91.98489 39081 ft 550 kts 26°
2026-05-07 00:19 35.05647 -91.92900 39088 ft 550 kts 26°
2026-05-07 00:19 35.11774 -91.87314 39087 ft 549 kts 26°
2026-05-07 00:20 35.17896 -91.81728 39084 ft 549 kts 26°
2026-05-07 00:20 35.24022 -91.76120 39088 ft 549 kts 26°
2026-05-07 00:21 35.30141 -91.70509 39087 ft 550 kts 26°
2026-05-07 00:21 35.36239 -91.64926 39083 ft 551 kts 26°
2026-05-07 00:22 35.42384 -91.59286 39082 ft 552 kts 26°
2026-05-07 00:22 35.48531 -91.53615 39088 ft 553 kts 26°
2026-05-07 00:23 35.54682 -91.47935 39092 ft 553 kts 26°
2026-05-07 00:23 35.60829 -91.42250 39092 ft 553 kts 26°
2026-05-07 00:24 35.66977 -91.36536 39098 ft 554 kts 26°
2026-05-07 00:24 35.73095 -91.30841 39106 ft 554 kts 26°
2026-05-07 00:25 35.79263 -91.25116 39110 ft 555 kts 26°
2026-05-07 00:25 35.85417 -91.19378 39116 ft 554 kts 26°
2026-05-07 00:26 35.91555 -91.13641 39109 ft 553 kts 26°
2026-05-07 00:26 35.97689 -91.07899 39105 ft 553 kts 26°
2026-05-07 00:27 36.03814 -91.02156 39099 ft 553 kts 26°
2026-05-07 00:27 36.09950 -90.96382 39083 ft 554 kts 25°
2026-05-07 00:28 36.13124 -90.93781 39082 ft 543 kts 19°
2026-05-07 00:28 36.16317 -90.91388 39081 ft 543 kts 19°
2026-05-07 00:28 36.22832 -90.86515 39087 ft 544 kts 19°
2026-05-07 00:29 36.29271 -90.81678 39100 ft 545 kts 19°
2026-05-07 00:30 36.42210 -90.71903 39103 ft 544 kts 19°
2026-05-07 00:30 36.48681 -90.67010 39105 ft 545 kts 19°
2026-05-07 00:31 36.55149 -90.62096 39105 ft 544 kts 19°
2026-05-07 00:31 36.61613 -90.57182 39099 ft 544 kts 19°
2026-05-07 00:32 36.68031 -90.52297 39095 ft 544 kts 19°
2026-05-07 00:32 36.74492 -90.47366 39091 ft 544 kts 19°
2026-05-07 00:33 36.80946 -90.42435 39085 ft 544 kts 19°
2026-05-07 00:33 36.87404 -90.37486 39082 ft 544 kts 19°
2026-05-07 00:34 36.93854 -90.32517 39080 ft 545 kts 19°
2026-05-07 00:34 37.00286 -90.27565 39080 ft 545 kts 19°
2026-05-07 00:35 37.06742 -90.22591 39079 ft 545 kts 19°
2026-05-07 00:35 37.13207 -90.17608 39076 ft 546 kts 19°
2026-05-07 00:36 37.19670 -90.12607 39073 ft 546 kts 19°
2026-05-07 00:36 37.26137 -90.07592 39073 ft 546 kts 19°
2026-05-07 00:37 37.32611 -90.02553 39063 ft 547 kts 19°
2026-05-07 00:37 37.39067 -89.97521 39061 ft 547 kts 19°
2026-05-07 00:38 37.45515 -89.92496 39063 ft 547 kts 19°
2026-05-07 00:38 37.51953 -89.87465 39065 ft 548 kts 19°
2026-05-07 00:39 37.58464 -89.82355 39066 ft 548 kts 19°
2026-05-07 00:39 37.64893 -89.77305 39074 ft 548 kts 19°
2026-05-07 00:40 37.71368 -89.72212 39078 ft 548 kts 19°
2026-05-07 00:40 37.77847 -89.67104 39081 ft 548 kts 19°
2026-05-07 00:41 37.84313 -89.61987 39081 ft 548 kts 19°
2026-05-07 00:41 37.90732 -89.56900 39085 ft 548 kts 19°
2026-05-07 00:42 37.97214 -89.51775 39084 ft 548 kts 19°
2026-05-07 00:42 38.03686 -89.46610 39084 ft 548 kts 19°
2026-05-07 00:43 38.10147 -89.41448 39083 ft 549 kts 19°
2026-05-07 00:43 38.16568 -89.36320 39083 ft 549 kts 19°
2026-05-07 00:44 38.23032 -89.31152 39084 ft 549 kts 19°
2026-05-07 00:44 38.29497 -89.25984 39085 ft 548 kts 19°
2026-05-07 00:45 38.35940 -89.20798 39088 ft 548 kts 20°
2026-05-07 00:45 38.42232 -89.15188 39092 ft 564 kts 32°
2026-05-07 00:46 38.45007 -89.11575 39090 ft 576 kts 41°
2026-05-07 00:46 38.46747 -89.09015 39090 ft 576 kts 41°
2026-05-07 00:46 38.52000 -89.01286 39087 ft 576 kts 40°
2026-05-07 00:47 38.58116 -88.92318 39088 ft 576 kts 40°
2026-05-07 00:47 38.62494 -88.85896 39093 ft 576 kts 40°
2026-05-07 00:48 38.67756 -88.78167 39098 ft 576 kts 40°
2026-05-07 00:48 38.73017 -88.70405 39102 ft 577 kts 41°
2026-05-07 00:49 38.78272 -88.62617 39103 ft 577 kts 41°
2026-05-07 00:49 38.83518 -88.54843 39100 ft 576 kts 41°
2026-05-07 00:50 38.88719 -88.47105 39099 ft 577 kts 41°
2026-05-07 00:50 38.93944 -88.39277 39098 ft 577 kts 41°
2026-05-07 00:51 38.99173 -88.31450 39098 ft 577 kts 41°
2026-05-07 00:51 39.04405 -88.23624 39098 ft 577 kts 41°
2026-05-07 00:52 39.09623 -88.15777 39098 ft 577 kts 41°
2026-05-07 00:52 39.14809 -88.07967 39089 ft 578 kts 41°
2026-05-07 00:53 39.20019 -88.00080 39082 ft 578 kts 41°
2026-05-07 00:53 39.25241 -87.92196 39077 ft 577 kts 41°
2026-05-07 00:54 39.30455 -87.84307 39076 ft 578 kts 41°
2026-05-07 00:54 39.35660 -87.76372 39073 ft 578 kts 41°
2026-05-07 00:55 39.40877 -87.68425 39074 ft 579 kts 41°
2026-05-07 00:55 39.46051 -87.60513 39074 ft 579 kts 41°
2026-05-07 00:56 39.51255 -87.52512 39069 ft 580 kts 41°
2026-05-07 00:56 39.56444 -87.44513 39071 ft 580 kts 41°
2026-05-07 00:57 39.61604 -87.36562 39072 ft 580 kts 41°
2026-05-07 00:57 39.66808 -87.28536 39070 ft 580 kts 41°
2026-05-07 00:58 39.71998 -87.20507 39075 ft 580 kts 41°
2026-05-07 00:58 39.77181 -87.12463 39075 ft 579 kts 41°
2026-05-07 00:59 39.84902 -87.00461 39073 ft 579 kts 42°
2026-05-07 01:00 39.90059 -86.92398 39077 ft 579 kts 42°
2026-05-07 01:00 39.95214 -86.84328 39061 ft 580 kts 42°
2026-05-07 01:01 40.00378 -86.76208 39046 ft 582 kts 41°
2026-05-07 01:01 40.05551 -86.68072 39049 ft 582 kts 42°
2026-05-07 01:02 40.10674 -86.59975 39059 ft 582 kts 43°
2026-05-07 01:02 40.15827 -86.51814 39061 ft 582 kts 42°
2026-05-07 01:03 40.20976 -86.43641 39059 ft 582 kts 42°
2026-05-07 01:03 40.26114 -86.35451 39064 ft 582 kts 42°
2026-05-07 01:04 40.31243 -86.27261 39062 ft 582 kts 42°
2026-05-07 01:04 40.36380 -86.19045 39060 ft 582 kts 42°
2026-05-07 01:05 40.41501 -86.10835 39061 ft 582 kts 43°
2026-05-07 01:05 40.46582 -86.02657 39060 ft 582 kts 43°
2026-05-07 01:06 40.51692 -85.94418 39062 ft 581 kts 43°
2026-05-07 01:06 40.56795 -85.86177 39058 ft 581 kts 43°
2026-05-07 01:07 40.61899 -85.77899 39055 ft 581 kts 43°
2026-05-07 01:07 40.66977 -85.69620 39061 ft 581 kts 44°
2026-05-07 01:08 40.72053 -85.61336 39060 ft 580 kts 44°
2026-05-07 01:08 40.77115 -85.53073 39056 ft 579 kts 44°
2026-05-07 01:09 40.82130 -85.44859 39050 ft 578 kts 44°
2026-05-07 01:09 40.87158 -85.36573 39048 ft 578 kts 44°
2026-05-07 01:10 40.92188 -85.28295 39047 ft 577 kts 44°
2026-05-07 01:10 40.97211 -85.20007 39043 ft 577 kts 44°
2026-05-07 01:11 41.02278 -85.11795 39040 ft 574 kts 43°
2026-05-07 01:11 41.07433 -85.03832 39039 ft 573 kts 42°
2026-05-07 01:12 41.12640 -84.95838 39042 ft 572 kts 42°
2026-05-07 01:12 41.17794 -84.87783 39039 ft 572 kts 43°
2026-05-07 01:13 41.22923 -84.79667 39034 ft 572 kts 43°
2026-05-07 01:13 41.28039 -84.71574 39030 ft 571 kts 43°
2026-05-07 01:14 41.33122 -84.63533 39031 ft 571 kts 43°
2026-05-07 01:14 41.38219 -84.55446 39030 ft 570 kts 43°
2026-05-07 01:15 41.43302 -84.47356 39028 ft 569 kts 43°
2026-05-07 01:15 41.48376 -84.39266 39028 ft 569 kts 43°
2026-05-07 01:16 41.53443 -84.31164 39015 ft 568 kts 44°
2026-05-07 01:16 41.58493 -84.23048 39029 ft 568 kts 44°
2026-05-07 01:17 41.63538 -84.14930 39016 ft 568 kts 44°
2026-05-07 01:17 41.68578 -84.06810 39028 ft 567 kts 44°
2026-05-07 01:18 41.73612 -83.98679 39029 ft 566 kts 44°
2026-05-07 01:18 41.78626 -83.90553 39027 ft 566 kts 44°
2026-05-07 01:19 41.83637 -83.82415 39028 ft 566 kts 44°
2026-05-07 01:19 41.88635 -83.74250 39025 ft 566 kts 45°
2026-05-07 01:20 41.93622 -83.66089 39014 ft 565 kts 45°
2026-05-07 01:20 41.98616 -83.57923 39018 ft 565 kts 44°
2026-05-07 01:21 42.03601 -83.49734 39028 ft 565 kts 45°
2026-05-07 01:21 42.08569 -83.41531 39027 ft 565 kts 45°
2026-05-07 01:22 42.13528 -83.33327 39019 ft 564 kts 45°
2026-05-07 01:22 42.18446 -83.25166 39022 ft 564 kts 46°
2026-05-07 01:23 42.23134 -83.16635 39026 ft 567 kts 51°
2026-05-07 01:23 42.27476 -83.07755 39026 ft 567 kts 53°
2026-05-07 01:24 42.31776 -82.98838 39015 ft 565 kts 52°
2026-05-07 01:24 42.36187 -82.90043 39017 ft 564 kts 51°
2026-05-07 01:25 42.40642 -82.81308 39006 ft 564 kts 51°
2026-05-07 01:25 42.45069 -82.72545 39000 ft 563 kts 51°
2026-05-07 01:26 42.49377 -82.63883 38970 ft 546 kts 51°
2026-05-07 01:26 42.53579 -82.55411 38978 ft 544 kts 51°
2026-05-07 01:27 42.57805 -82.46898 38979 ft 544 kts 51°
2026-05-07 01:27 42.62031 -82.38370 39006 ft 544 kts 51°
2026-05-07 01:28 42.66273 -82.29800 38778 ft 555 kts 51°
2026-05-07 01:28 42.68444 -82.25422 38525 ft 560 kts 50°
2026-05-07 01:28 42.70669 -82.21073 38227 ft 558 kts 49°
2026-05-07 01:28 42.72950 -82.16797 37571 ft 560 kts 47°
2026-05-07 01:29 42.75280 -82.12564 37163 ft 555 kts 47°
2026-05-07 01:29 42.77574 -82.08436 36728 ft 551 kts 46°
2026-05-07 01:29 42.79859 -82.04250 35867 ft 556 kts 51°
2026-05-07 01:29 42.81852 -81.99690 35360 ft 559 kts 56°
2026-05-07 01:30 42.83750 -81.95086 34853 ft 557 kts 56°
2026-05-07 01:30 42.85647 -81.90489 34317 ft 555 kts 56°
2026-05-07 01:30 42.87537 -81.85914 33783 ft 553 kts 56°
2026-05-07 01:30 42.89424 -81.81340 33230 ft 553 kts 56°
2026-05-07 01:31 42.91303 -81.76782 32684 ft 551 kts 56°
2026-05-07 01:31 42.93176 -81.72227 32143 ft 549 kts 57°
2026-05-07 01:31 42.95034 -81.67700 31607 ft 545 kts 57°
2026-05-07 01:31 42.96876 -81.63197 31179 ft 539 kts 57°
2026-05-07 01:32 42.98700 -81.58730 30660 ft 536 kts 57°
2026-05-07 01:32 43.00498 -81.54316 30294 ft 528 kts 57°
2026-05-07 01:32 43.02279 -81.49942 29785 ft 525 kts 58°
2026-05-07 01:32 43.04044 -81.45600 29311 ft 520 kts 58°
2026-05-07 01:33 43.05764 -81.41354 28869 ft 514 kts 58°
2026-05-07 01:33 43.07492 -81.37091 28430 ft 509 kts 58°
2026-05-07 01:33 43.09185 -81.32865 27986 ft 504 kts 59°
2026-05-07 01:33 43.10839 -81.28662 27541 ft 499 kts 59°
2026-05-07 01:34 43.12464 -81.24476 27094 ft 495 kts 60°
2026-05-07 01:34 43.14062 -81.20335 26677 ft 490 kts 60°
2026-05-07 01:34 43.15644 -81.16238 26249 ft 485 kts 59°
2026-05-07 01:34 43.17220 -81.12172 25826 ft 481 kts 59°
2026-05-07 01:35 43.18782 -81.08152 25405 ft 476 kts 59°
2026-05-07 01:35 43.20332 -81.04160 24993 ft 472 kts 59°
2026-05-07 01:35 43.21866 -81.00202 24582 ft 468 kts 60°
2026-05-07 01:35 43.23387 -80.96281 24177 ft 464 kts 60°
2026-05-07 01:36 43.24894 -80.92392 23758 ft 460 kts 60°
2026-05-07 01:36 43.26390 -80.88527 23329 ft 456 kts 60°
2026-05-07 01:36 43.27867 -80.84696 22905 ft 452 kts 60°
2026-05-07 01:36 43.29327 -80.80901 22470 ft 448 kts 60°
2026-05-07 01:37 43.30775 -80.77127 22033 ft 444 kts 60°
2026-05-07 01:37 43.32208 -80.73386 21593 ft 441 kts 60°
2026-05-07 01:37 43.33631 -80.69671 21149 ft 437 kts 60°
2026-05-07 01:37 43.35041 -80.65999 20713 ft 432 kts 60°
2026-05-07 01:38 43.36438 -80.62363 20266 ft 428 kts 60°
2026-05-07 01:38 43.37823 -80.58750 19815 ft 426 kts 60°
2026-05-07 01:38 43.39192 -80.55165 19367 ft 422 kts 61°
2026-05-07 01:38 43.40533 -80.51645 18947 ft 418 kts 61°
2026-05-07 01:39 43.41875 -80.48120 18504 ft 415 kts 61°
2026-05-07 01:39 43.43199 -80.44619 18053 ft 411 kts 61°
2026-05-07 01:39 43.44510 -80.41137 17619 ft 408 kts 62°
2026-05-07 01:39 43.45786 -80.37671 17191 ft 403 kts 66°
2026-05-07 01:40 43.46799 -80.34087 16752 ft 400 kts 69°
2026-05-07 01:40 43.47787 -80.30526 16338 ft 396 kts 69°
2026-05-07 01:40 43.48440 -80.28189 16066 ft 393 kts 69°
2026-05-07 01:40 43.49419 -80.24691 15649 ft 389 kts 68°
2026-05-07 01:41 43.50385 -80.21235 15261 ft 385 kts 68°
2026-05-07 01:41 43.51336 -80.17806 14907 ft 379 kts 69°
2026-05-07 01:41 43.52244 -80.14460 14774 ft 367 kts 69°
2026-05-07 01:41 43.53115 -80.11192 14545 ft 360 kts 69°
2026-05-07 01:42 43.53971 -80.07963 14227 ft 357 kts 69°
2026-05-07 01:42 43.54818 -80.04761 13906 ft 354 kts 69°
2026-05-07 01:42 43.55653 -80.01586 13559 ft 351 kts 69°
2026-05-07 01:42 43.56484 -79.98439 13237 ft 348 kts 69°
2026-05-07 01:43 43.57314 -79.95309 12880 ft 346 kts 69°
2026-05-07 01:43 43.58129 -79.92246 12557 ft 344 kts 69°
2026-05-07 01:43 43.59036 -79.89219 12240 ft 338 kts 59°
2026-05-07 01:43 43.60400 -79.86625 11916 ft 331 kts 42°
2026-05-07 01:44 43.62151 -79.84637 11579 ft 323 kts 30°
2026-05-07 01:44 43.63979 -79.82867 11372 ft 316 kts 31°
2026-05-07 01:44 43.65733 -79.81162 11238 ft 299 kts 30°
2026-05-07 01:44 43.67387 -79.79552 10963 ft 287 kts 30°
2026-05-07 01:45 43.69003 -79.77982 10529 ft 282 kts 30°
2026-05-07 01:45 43.70596 -79.76434 10077 ft 278 kts 30°
2026-05-07 01:45 43.72176 -79.74901 9597 ft 276 kts 31°
2026-05-07 01:45 43.73736 -79.73382 9138 ft 272 kts 31°
2026-05-07 01:46 43.75211 -79.71808 8666 ft 271 kts 41°
2026-05-07 01:46 43.76514 -79.69923 8064 ft 273 kts 43°
2026-05-07 01:46 43.77841 -79.67990 7322 ft 280 kts 43°
2026-05-07 01:46 43.79201 -79.66017 6563 ft 285 kts 43°
2026-05-07 01:47 43.80581 -79.64014 5920 ft 286 kts 43°
2026-05-07 01:47 43.81908 -79.62072 5703 ft 269 kts 43°
2026-05-07 01:47 43.83166 -79.60222 5568 ft 260 kts 43°
2026-05-07 01:47 43.84400 -79.58417 5346 ft 257 kts 43°
2026-05-07 01:48 43.85623 -79.56635 5086 ft 250 kts 42°
2026-05-07 01:48 43.86800 -79.54918 4740 ft 242 kts 42°
2026-05-07 01:48 43.87798 -79.53074 4434 ft 238 kts 65°
2026-05-07 01:48 43.87997 -79.50847 4310 ft 234 kts 99°
2026-05-07 01:49 43.87321 -79.48863 4186 ft 226 kts 131°
2026-05-07 01:49 43.86259 -79.47374 4091 ft 213 kts 139°
2026-05-07 01:49 43.85199 -79.46044 3959 ft 199 kts 142°
2026-05-07 01:49 43.84009 -79.45243 3793 ft 184 kts 172°
2026-05-07 01:50 43.82774 -79.45202 3601 ft 174 kts 196°
2026-05-07 01:50 43.81679 -79.45787 3357 ft 166 kts 219°
2026-05-07 01:50 43.80834 -79.46843 3105 ft 163 kts 232°
2026-05-07 01:50 43.80050 -79.47990 3023 ft 165 kts 232°
2026-05-07 01:51 43.79262 -79.49144 3021 ft 166 kts 232°
2026-05-07 01:51 43.78465 -79.50308 3006 ft 167 kts 232°
2026-05-07 01:51 43.77668 -79.51470 2846 ft 166 kts 231°
2026-05-07 01:51 43.76877 -79.52626 2650 ft 164 kts 231°
2026-05-07 01:52 43.76104 -79.53752 2480 ft 163 kts 230°
2026-05-07 01:52 43.75335 -79.54865 2281 ft 154 kts 230°
2026-05-07 01:52 43.74622 -79.55905 2044 ft 146 kts 230°
2026-05-07 01:52 43.73938 -79.56908 1866 ft 142 kts 230°
2026-05-07 01:53 43.73263 -79.57904 1673 ft 142 kts 229°
2026-05-07 01:53 43.72571 -79.58912 1475 ft 144 kts 228°
2026-05-07 01:53 43.71882 -79.59912 1296 ft 144 kts 228°
2026-05-07 01:53 43.71195 -79.60916 1095 ft 144 kts 228°
2026-05-07 01:54 43.70503 -79.61921 901 ft 143 kts 227°
2026-05-07 01:54 43.69829 -79.62900 732 ft 140 kts 227°
2026-05-07 01:54 43.69162 -79.63870 582 ft 138 kts 227°
2026-05-07 01:54 43.68585 -79.64710 570 ft 100 kts 226°
2026-05-07 01:55 43.68225 -79.65233 570 ft 50 kts 226°
2026-05-07 01:55 43.68051 -79.65430 563 ft 27 kts 201°
2026-05-07 01:55 43.67896 -79.65487 564 ft 18 kts 182°
2026-05-07 01:55 43.67853 -79.65360 563 ft 20 kts 60°
2026-05-07 01:56 43.67967 -79.65202 573 ft 25 kts 46°
2026-05-07 01:56 43.68093 -79.65019 572 ft 27 kts 46°
2026-05-07 01:56 43.68228 -79.64824 570 ft 29 kts 46°
2026-05-07 01:56 43.68376 -79.64609 570 ft 33 kts 46°
2026-05-07 01:57 43.68540 -79.64372 573 ft 33 kts 46°
2026-05-07 01:57 43.68666 -79.64168 571 ft 24 kts 69°
2026-05-07 01:57 43.68672 -79.63948 567 ft 23 kts 91°
2026-05-07 01:57 43.68604 -79.63751 569 ft 25 kts 137°
2026-05-07 01:58 43.68463 -79.63570 569 ft 30 kts 137°
2026-05-07 01:58 43.68319 -79.63375 568 ft 28 kts 138°
2026-05-07 01:58 43.68185 -79.63203 571 ft 25 kts 137°
2026-05-07 01:58 43.68064 -79.63045 572 ft 23 kts 136°
2026-05-07 01:59 43.67945 -79.62895 570 ft 25 kts 137°
2026-05-07 01:59 43.67819 -79.62726 573 ft 25 kts 138°
2026-05-07 01:59 43.67699 -79.62571 574 ft 23 kts 137°
2026-05-07 01:59 43.67577 -79.62416 572 ft 26 kts 136°
2026-05-07 02:00 43.67445 -79.62244 567 ft 21 kts 136°
2026-05-07 02:00 43.67358 -79.62119 576 ft 19 kts 116°
2026-05-07 02:00 43.67414 -79.61972 576 ft 19 kts 49°
2026-05-07 02:00 43.67496 -79.61857 571 ft 16 kts 46°
2026-05-07 02:01 43.67575 -79.61743 570 ft 14 kts 46°
2026-05-07 02:01 43.67671 -79.61626 570 ft 22 kts 47°
2026-05-07 02:01 43.67768 -79.61484 562 ft 16 kts 46°
2026-05-07 02:01 43.67832 -79.61390 568 ft 11 kts 47°
2026-05-07 02:02 43.67826 -79.61323 566 ft 8 kts 121°
2026-05-07 02:02 43.67799 -79.61263 569 ft 3 kts 122°
2026-05-07 02:02 43.67798 -79.61260 565 ft 0 kts 122°